#timestamp,LO_Frequency,Hit,StdDev 
1602018015.8,286047001.2,N
1602018035.6,286047000.9,N
1602018055.4,286047001.0,N
1602018075.3,286047001.2,N
1602018095.1,286047000.9,N
1602018115.9,286046998.2,N
1602018135.7,286047000.7,N
1602018155.5,286047000.8,N
1602018175.4,286046998.2,N
1602018195.2,286047001.2,N
1602018215.0,286047001.2,N
1602018215.9,286047001.2,N
1602018235.8,286047000.4,N
1602018255.6,286046998.5,N
1602018275.5,286046999.0,N
1602018295.3,286046998.4,N
1602018315.1,286046998.6,N
1602018335.9,286046998.2,N
1602018355.7,286046998.9,N
1602018375.5,286046999.4,N
1602018395.4,286046998.6,N
1602018415.2,286046998.8,N
1602018435.1,286046998.2,N
1602018436.0,286046998.2,N
1602018455.8,286046998.7,N
1602018475.6,286046999.0,N
1602018495.5,286046998.9,N
1602018515.3,286047000.8,N
1602018535.1,286046998.7,N
1602018555.9,286046998.1,N
1602018575.7,286046998.6,N
1602018595.6,286046998.8,N
1602018615.4,286046998.3,N
1602018635.2,286046998.3,N
1602018655.1,286046998.8,N
1602018656.0,286046998.8,N
1602018675.8,286046998.7,N
1602018695.7,286046998.3,N
1602018715.5,286046998.1,N
1602018735.3,286046998.2,N
1602018755.2,286046998.4,N
1602018775.0,286046998.5,N
1602018775.9,286046998.5,N
1602018795.8,286046998.8,N
1602018815.6,286046999.2,N
1602018835.4,286046998.8,N
1602018855.3,286046999.1,N
1602018875.1,286046998.9,N
1602018895.8,286046999.1,N
1602018915.7,286046999.4,N
1602018935.5,286046998.4,Y
1602018955.4,286047001.0,P
1602018975.2,286047000.9,N
1602018995.0,286047000.3,N
1602018995.9,286047000.3,N
1602019015.8,286047000.3,N
1602019035.6,286047000.1,N
1602019055.4,286047000.2,N
1602019075.3,286047000.0,N
1602019095.1,286047001.0,N
1602019115.9,286047000.0,N
1602019135.7,286047000.4,N
1602019155.5,286047000.9,N
1602019175.4,286046998.1,Y
1602019195.2,286046998.1,P
1602019215.1,286047001.2,N
1602019216.0,286047001.2,N
1602019235.8,286046998.8,N
1602019255.6,286046998.6,N
1602019275.5,286046998.4,N
1602019295.3,286046998.7,N
1602019315.1,286046998.7,N
1602019335.9,286046998.5,N
1602019385.7,286046998.1,E
1602019395.7,286047000.8,N
1602019415.5,286047001.4,P
1602019435.3,286047003.9,P
1602019455.2,286047003.4,N
1602019475.0,286047003.2,N
1602019475.9,286047003.2,N
1602019495.8,286047007.2,Y
1602019515.6,286047005.9,P
1602019535.4,286047005.2,P
1602019555.3,286047007.2,P
1602019575.1,286047005.8,Y
1602019595.9,286047011.9,P
1602019615.7,286046996.6,N
1602019635.5,286046999.6,N
1602019655.4,286046997.1,N
1602019675.2,286046997.0,N
1602019695.0,286046997.4,N
1602019695.9,286046997.4,N
1602019715.8,286046997.2,N
1602019735.6,286046997.2,N
1602019755.5,286046996.8,N
1602019775.3,286046997.1,N
1602019795.1,286046997.9,N
1602019815.9,286046997.9,N
1602019835.7,286046995.3,N
1602019855.5,286046995.0,N
1602019875.4,286046994.9,N
1602019895.2,286046994.9,N
1602019915.0,286046995.0,N
1602019916.0,286046995.0,N
1602019935.8,286046994.9,N
1602019955.6,286046995.2,N
1602019975.5,286046995.4,N
1602019995.3,286046995.2,N
1602020015.1,286046996.1,N
1602020035.9,286046995.1,N
1602020055.7,286046997.9,N
1602020075.6,286046997.9,N
1602020095.4,286046995.2,N
1602020115.2,286046997.9,N
1602020135.1,286046998.0,N
1602020136.0,286046998.0,N
1602020155.8,286046997.9,N
1602020175.6,286046997.8,N
1602020195.5,286046995.0,Y
1602020215.3,286047000.3,P
1602020235.2,286047000.3,N
1602020255.9,286047000.5,N
1602020275.7,286047002.4,N
1602020295.6,286047002.8,N
1602020315.4,286047000.2,N
1602020335.2,286046999.7,N
1602020355.1,286047002.4,N
1602020356.0,286047002.4,N
1602020375.8,286046999.8,N
1602020395.7,286047000.3,N
1602020415.5,286047002.8,N
1602020435.3,286046999.8,N
1602020455.2,286047000.4,N
1602020475.0,286047002.4,N
1602020475.9,286047002.4,N
1602020495.7,286047000.1,N
1602020515.6,286047002.6,N
1602020535.4,286047002.4,N
1602020555.3,286046999.9,N
1602020575.1,286047000.1,N
1602020576.0,286047000.1,N
1602020595.8,286046999.7,N
1602020615.7,286047002.3,N
1602020635.5,286047002.5,N
1602020655.3,286047002.0,N
1602020675.2,286047000.1,N
1602020695.0,286047002.8,N
1602020695.9,286047002.8,N
1602020715.8,286047002.6,N
1602020735.6,286046999.8,N
1602020755.4,286047002.6,N
1602020775.3,286046999.8,N
1602020795.1,286047000.1,N
1602020815.8,286047000.2,N
1602020835.7,286047000.1,N
1602020855.5,286047002.4,N
1602020875.4,286046999.9,N
1602020895.2,286047002.6,N
1602020915.0,286047002.2,N
1602020915.9,286047002.2,N
1602020935.8,286047000.1,N
1602020955.6,286047002.6,N
1602020975.4,286047001.8,N
1602020995.3,286047002.5,N
1602021015.1,286047002.5,N
1602021035.9,286047002.3,N
1602021055.7,286047002.2,N
1602021075.5,286047000.1,N
1602021095.4,286047002.7,N
1602021115.2,286047002.8,N
1602021135.0,286047002.8,N
1602021136.0,286047002.8,N
1602021155.8,286047002.8,N
1602021175.6,286047002.2,N
1602021195.5,286047002.7,N
1602021215.3,286047002.6,N
1602021235.1,286046999.8,N
1602021255.9,286046999.9,N
1602021275.7,286047002.3,N
1602021295.6,286047002.3,N
1602021315.4,286047002.3,N
1602021335.2,286047000.1,N
1602021355.1,286047000.2,N
1602021356.0,286047000.2,N
1602021375.8,286046999.8,N
1602021395.7,286047000.1,N
1602021415.5,286047000.0,N
1602021435.3,286046999.9,N
1602021455.2,286047000.0,N
1602021475.0,286046999.7,N
1602021475.9,286046999.7,N
1602021495.8,286047000.6,N
1602021515.6,286047000.6,N
1602021535.4,286047000.2,N
1602021555.3,286047000.0,N
1602021575.1,286047000.3,N
1602021595.8,286047000.9,N
